Ankeny, IA

4:54 AM CDT on October 19, 2017 (GMT -0500)
Ankeny Regional

Weather History for KIKV - October, 2012

Change the Weather History Date:

Thursday, October 18, 2012

  Actual Average (KDSM) Record (KDSM)
Temperature  
Mean Temperature 46 °F -  
Max Temperature 51 °F 58 °F 87 °F (1950)
Min Temperature 42 °F 39 °F 22 °F (1972)
Degree Days  
Heating Degree Days 18    
Moisture  
Dew Point 40 °F    
Average Humidity 84    
Maximum Humidity 100    
Minimum Humidity 28    
Precipitation  
Precipitation 0.49 in - - ()
Sea Level Pressure  
Sea Level Pressure 29.40 in    
Wind  
Wind Speed 12 mph (West)    
Max Wind Speed 24 mph    
Max Gust Speed 34 mph    
Visibility 10 miles    
Events Rain    
Averages and records for this station are not official NWS values.
T = Trace of Precipitation, MM = Missing Value Source: NWS Daily Summary

Daily Weather History Graph

Daily Weather History Graph

Search for Another Location

Airport or City:

Trip Planner

Search our weather history database for the weather conditions in past years. The results will help you decide how hot, cold, wet, or windy it might be!

Date:

Astronomy

Oct. 18, 2012 Rise Set
Actual Time 7:30 AM CDT 6:27 PM CDT
Civil Twilight 7:02 AM CDT 6:55 PM CDT
Nautical Twilight 6:29 AM CDT 7:27 PM CDT
Astronomical Twilight 5:57 AM CDT 8:00 PM CDT
Moon 11:15 AM CDT (10/18) 8:59 PM CDT (10/18)
Length of Visible Light 11h 53m
Length of Day
10h 57m
Waxing Crescent, 14% of the Moon is Illuminated
Oct 18
Waxing Crescent
Oct 21
First Quarter
Oct 29
Full
Nov 6
Last Quarter
Nov 13
New

Hourly Weather History & Observations

Time (CDT) Temp. Windchill Dew Point Humidity Pressure Visibility Wind Dir Wind Speed Gust Speed Precip Events Conditions
12:15 AM 48.2 °F - 33.8 °F 58% 29.46 in 10.0 mi West 8.1 mph - N/A   Mostly Cloudy
12:35 AM 48.2 °F - 33.8 °F 58% 29.45 in 10.0 mi West 9.2 mph - N/A   Overcast
12:55 AM 48.2 °F - 35.6 °F 62% 29.44 in 10.0 mi West 8.1 mph - N/A   Overcast
1:15 AM 48.2 °F - 35.6 °F 62% 29.44 in 10.0 mi West 8.1 mph - N/A   Overcast
1:35 AM 48.2 °F - 30.2 °F 50% 29.44 in 10.0 mi West 8.1 mph - N/A   Overcast
1:55 AM 50.0 °F - 28.4 °F 43% 29.44 in 10.0 mi West 6.9 mph - N/A   Overcast
2:15 AM 51.8 °F - 21.2 °F 30% 29.44 in 10.0 mi West 9.2 mph - N/A   Overcast
2:35 AM 51.8 °F - 19.4 °F 28% 29.44 in 10.0 mi West 10.4 mph - N/A   Overcast
2:55 AM 51.8 °F - 19.4 °F 28% 29.44 in 10.0 mi West 13.8 mph 17.3 mph N/A   Overcast
3:15 AM 50.0 °F - 21.2 °F 32% 29.43 in 10.0 mi West 10.4 mph - N/A   Overcast
3:35 AM 50.0 °F - 21.2 °F 32% 29.43 in 10.0 mi West 9.2 mph 16.1 mph N/A   Overcast
3:55 AM 50.0 °F - 21.2 °F 32% 29.42 in 10.0 mi West 11.5 mph 16.1 mph N/A   Overcast
4:15 AM 50.0 °F - 23.0 °F 35% 29.42 in 10.0 mi West 10.4 mph - N/A   Overcast
4:35 AM 50.0 °F - 24.8 °F 37% 29.42 in 10.0 mi West 9.2 mph - N/A   Overcast
4:55 AM 48.2 °F - 24.8 °F 40% 29.42 in 10.0 mi West 9.2 mph - N/A   Overcast
5:15 AM 48.2 °F - 26.6 °F 43% 29.41 in 10.0 mi West 12.7 mph - N/A   Overcast
5:35 AM 48.2 °F - 28.4 °F 46% 29.41 in 10.0 mi West 9.2 mph - N/A   Overcast
5:55 AM 50.0 °F - 28.4 °F 43% 29.40 in 10.0 mi West 18.4 mph 34.5 mph N/A   Overcast
6:35 AM 46.4 °F 39.0 °F 37.4 °F 71% 29.41 in 10.0 mi West 19.6 mph 32.2 mph N/A Rain Light Rain
6:55 AM 46.4 °F 40.1 °F 39.2 °F 76% 29.41 in 10.0 mi West 15.0 mph 21.9 mph N/A Rain Rain
7:15 AM 42.8 °F 34.5 °F 39.2 °F 87% 29.41 in 10.0 mi West 18.4 mph 33.4 mph N/A Rain Light Rain
7:35 AM 44.6 °F 37.2 °F 42.8 °F 93% 29.41 in 10.0 mi West 17.3 mph 23.0 mph 0.01 in Rain Light Rain
7:55 AM 44.6 °F 38.1 °F 42.8 °F 93% 29.40 in 10.0 mi West 13.8 mph 24.2 mph 0.03 in Rain Rain
8:15 AM 44.6 °F 38.4 °F 44.6 °F 100% 29.40 in 10.0 mi West 12.7 mph 19.6 mph 0.01 in   Drizzle
8:35 AM 44.6 °F 38.4 °F 44.6 °F 100% 29.40 in 10.0 mi West 12.7 mph 26.5 mph 0.03 in   Drizzle
8:55 AM 42.8 °F 36.6 °F 42.8 °F 100% 29.39 in 7.0 mi West 11.5 mph 20.7 mph 0.04 in   Drizzle
9:15 AM 42.8 °F 34.5 °F 42.8 °F 100% 29.39 in 10.0 mi West 18.4 mph 25.3 mph 0.02 in Rain Rain
9:35 AM 42.8 °F 35.4 °F 42.8 °F 100% 29.39 in 10.0 mi West 15.0 mph - 0.03 in Rain Light Rain
9:55 AM 42.8 °F 35.1 °F 42.8 °F 100% 29.39 in 10.0 mi West 16.1 mph 28.8 mph 0.05 in Rain Rain
10:15 AM 42.8 °F 34.0 °F 42.8 °F 100% 29.38 in 10.0 mi West 20.7 mph 27.6 mph 0.03 in Rain Light Rain
10:35 AM 44.6 °F 37.4 °F 44.6 °F 100% 29.38 in 10.0 mi West 16.1 mph 21.9 mph 0.05 in Rain Light Rain
10:55 AM 44.6 °F 37.8 °F 44.6 °F 100% 29.38 in 7.0 mi West 15.0 mph 27.6 mph 0.07 in Rain Light Rain
11:15 AM 44.6 °F 37.8 °F 44.6 °F 100% 29.37 in 10.0 mi West 15.0 mph 24.2 mph 0.01 in Rain Light Rain
11:35 AM 44.6 °F 36.9 °F 44.6 °F 100% 29.37 in 10.0 mi West 18.4 mph 27.6 mph 0.03 in Rain Light Rain
11:55 AM 44.6 °F 36.6 °F 44.6 °F 100% 29.37 in 10.0 mi West 19.6 mph 32.2 mph 0.05 in Rain Light Rain
12:15 PM 44.6 °F 36.1 °F 44.6 °F 100% 29.37 in 10.0 mi West 21.9 mph 27.6 mph 0.02 in Rain Light Rain
12:35 PM 44.6 °F 36.6 °F 44.6 °F 100% 29.37 in 10.0 mi West 19.6 mph 28.8 mph 0.04 in Rain Light Rain
12:55 PM 44.6 °F 36.6 °F 44.6 °F 100% 29.37 in 10.0 mi West 19.6 mph 27.6 mph 0.06 in Rain Light Rain
1:15 PM 44.6 °F 36.4 °F 44.6 °F 100% 29.36 in 10.0 mi West 20.7 mph 28.8 mph 0.02 in Rain Rain
1:35 PM 44.6 °F 36.1 °F 44.6 °F 100% 29.36 in 7.0 mi West 21.9 mph 31.1 mph 0.03 in Rain Light Rain
1:55 PM 44.6 °F 36.9 °F 44.6 °F 100% 29.36 in 10.0 mi West 18.4 mph 28.8 mph 0.04 in Rain Light Rain
2:15 PM 44.6 °F 38.4 °F 44.6 °F 100% 29.36 in 10.0 mi WSW 12.7 mph 27.6 mph 0.01 in Rain Light Rain
2:35 PM 44.6 °F 36.9 °F 44.6 °F 100% 29.36 in 10.0 mi WSW 18.4 mph 25.3 mph 0.01 in Rain Light Rain
2:55 PM 44.6 °F 38.8 °F 44.6 °F 100% 29.35 in 10.0 mi West 11.5 mph 24.2 mph 0.02 in Rain Light Rain
3:15 PM 44.6 °F 36.6 °F 44.6 °F 100% 29.36 in 10.0 mi West 19.6 mph 24.2 mph N/A Rain Light Rain
3:35 PM 44.6 °F 38.1 °F 44.6 °F 100% 29.36 in 10.0 mi WSW 13.8 mph 19.6 mph N/A   Drizzle
3:55 PM 44.6 °F 37.4 °F 44.6 °F 100% 29.36 in 7.0 mi West 16.1 mph 19.6 mph N/A Rain Light Rain
4:15 PM 44.6 °F 37.8 °F 44.6 °F 100% 29.35 in 10.0 mi West 15.0 mph 21.9 mph 0.02 in Rain Rain
4:35 PM 46.4 °F 40.4 °F 46.4 °F 100% 29.36 in 10.0 mi West 13.8 mph 23.0 mph 0.02 in Rain Light Rain
4:55 PM 44.6 °F 37.8 °F 44.6 °F 100% 29.36 in 10.0 mi West 15.0 mph 23.0 mph 0.02 in   Drizzle
5:15 PM 44.6 °F 38.8 °F 44.6 °F 100% 29.36 in 10.0 mi West 11.5 mph 17.3 mph 0.01 in   Drizzle
5:35 PM 44.6 °F 39.2 °F 44.6 °F 100% 29.37 in 10.0 mi West 10.4 mph 16.1 mph 0.02 in Rain Light Rain
5:55 PM 44.6 °F 39.7 °F 44.6 °F 100% 29.37 in 10.0 mi West 9.2 mph - 0.04 in Rain Light Rain
6:15 PM 44.6 °F 39.2 °F 44.6 °F 100% 29.37 in 10.0 mi West 10.4 mph - 0.02 in Rain Light Rain
6:35 PM 44.6 °F 40.2 °F 44.6 °F 100% 29.37 in 10.0 mi West 8.1 mph - 0.04 in Rain Light Rain
6:55 PM 44.6 °F 39.7 °F 44.6 °F 100% 29.37 in 10.0 mi West 9.2 mph - 0.05 in Rain Light Rain
7:15 PM 46.4 °F 41.5 °F 46.4 °F 100% 29.38 in 10.0 mi West 10.4 mph - N/A   Light Drizzle
7:35 PM 46.4 °F 41.1 °F 46.4 °F 100% 29.39 in 10.0 mi West 11.5 mph 17.3 mph N/A   Overcast
7:55 PM 46.4 °F 40.7 °F 46.4 °F 100% 29.39 in 10.0 mi WNW 12.7 mph 18.4 mph N/A   Overcast
8:15 PM 46.4 °F 40.7 °F 46.4 °F 100% 29.40 in 10.0 mi WNW 12.7 mph 20.7 mph N/A   Overcast
8:35 PM 48.2 °F - 48.2 °F 100% 29.40 in 10.0 mi WNW 15.0 mph 24.2 mph N/A   Overcast
8:55 PM 48.2 °F - 48.2 °F 100% 29.41 in 10.0 mi WNW 13.8 mph 20.7 mph N/A   Overcast
9:15 PM 48.2 °F - 48.2 °F 100% 29.42 in 10.0 mi WNW 13.8 mph 21.9 mph N/A   Light Drizzle
9:35 PM 48.2 °F - 48.2 °F 100% 29.42 in 10.0 mi WNW 10.4 mph 18.4 mph N/A   Overcast
9:55 PM 48.2 °F - 48.2 °F 100% 29.42 in 10.0 mi WNW 13.8 mph 19.6 mph N/A Rain Rain
10:15 PM 46.4 °F 40.1 °F 46.4 °F 100% 29.43 in 10.0 mi WNW 15.0 mph 20.7 mph N/A Rain Light Rain
10:35 PM 48.2 °F - 48.2 °F 100% 29.43 in 5.0 mi WNW 17.3 mph 25.3 mph 0.01 in Rain Light Rain
10:55 PM 46.4 °F 38.1 °F 46.4 °F 100% 29.43 in 4.0 mi WNW 24.2 mph 28.8 mph 0.02 in Rain Light Rain